When you browse on this site, cookies collect data to enhance your experience and personalize the content and advertising you see.
Visit our Privacy Policy to learn more. By continuing to use the site, you agree to this use of cookies and data.
  • In Hungary
  • List of Countries
  • For 7 days
  • Water Temperature
  • Weather Map
  • News
  • Weather Widgets
  • user-avatar
    Login

    Hourly Weather Liborina

    Today, 25 August, Sunday

    Time Temperature Precipitation Wind Pressure Humidity
    00:00 +24°C° 0.1 mm 1 mps 694 mmHg 92%
    01:00 +21°C° 0.1 mm 0 mps 694 mmHg 92%
    02:00 +21°C° 0.2 mm 0 mps 694 mmHg 92%
    03:00 +21°C° 0.2 mm 0 mps 693 mmHg 92%
    04:00 +21°C° 0.2 mm 0 mps 693 mmHg 92%
    05:00 +22°C° 0 mm 0 mps 693 mmHg 91%
    06:00 +22°C° 0 mm 0 mps 694 mmHg 90%
    07:00 +22°C° 0 mm 0 mps 694 mmHg 89%
    08:00 +27°C° 0.1 mm 1 mps 694 mmHg 79%
    09:00 +29°C° 0.1 mm 1 mps 695 mmHg 70%
    10:00 +32°C° 0.1 mm 1 mps 695 mmHg 60%
    11:00 +33°C° 0.5 mm 1 mps 695 mmHg 57%
    12:00 +34°C° 0.5 mm 1 mps 695 mmHg 55%
    13:00 +35°C° 0.5 mm 1 mps 694 mmHg 52%
    14:00 +33°C° 0.8 mm 1 mps 693 mmHg 59%
    15:00 +32°C° 0.8 mm 1 mps 693 mmHg 67%
    16:00 +30°C° 0.8 mm 1 mps 692 mmHg 74%
    17:00 +29°C° 0.8 mm 1 mps 692 mmHg 79%
    18:00 +27°C° 0.8 mm 1 mps 692 mmHg 83%
    19:00 +26°C° 0.8 mm 1 mps 693 mmHg 88%
    20:00 +25°C° 0.6 mm 1 mps 693 mmHg 88%
    21:00 +25°C° 0.6 mm 1 mps 694 mmHg 89%
    22:00 +24°C° 0.6 mm 1 mps 694 mmHg 90%
    23:00 +24°C° 0.2 mm 1 mps 694 mmHg 90%

    Tomorrow, 26 August, Monday

    Time Temperature Precipitation Wind Pressure Humidity
    00:00 +24°C° 0.2 mm 1 mps 694 mmHg 90%
    01:00 +21°C° 0.2 mm 0 mps 694 mmHg 90%
    02:00 +21°C° 0 mm 0 mps 693 mmHg 90%
    03:00 +21°C° 0 mm 0 mps 693 mmHg 90%
    04:00 +21°C° 0 mm 0 mps 693 mmHg 89%
    05:00 +21°C° 0 mm 0 mps 694 mmHg 88%
    06:00 +22°C° 0 mm 0 mps 694 mmHg 87%
    07:00 +22°C° 0 mm 0 mps 694 mmHg 86%
    08:00 +25°C° 0.1 mm 0 mps 695 mmHg 77%
    09:00 +29°C° 0.1 mm 1 mps 695 mmHg 68%
    10:00 +31°C° 0.1 mm 1 mps 696 mmHg 59%
    11:00 +32°C° 0.6 mm 1 mps 695 mmHg 60%
    12:00 +32°C° 0.6 mm 1 mps 694 mmHg 60%
    13:00 +33°C° 0.6 mm 1 mps 693 mmHg 61%
    14:00 +32°C° 1.1 mm 1 mps 693 mmHg 67%
    15:00 +31°C° 1.1 mm 1 mps 692 mmHg 73%
    16:00 +30°C° 1.1 mm 1 mps 692 mmHg 80%
    17:00 +28°C° 0.8 mm 1 mps 692 mmHg 83%
    18:00 +27°C° 0.8 mm 1 mps 692 mmHg 87%
    19:00 +25°C° 0.8 mm 1 mps 693 mmHg 91%
    20:00 +25°C° 0.2 mm 1 mps 693 mmHg 90%
    21:00 +24°C° 0.2 mm 1 mps 694 mmHg 90%
    22:00 +24°C° 0.2 mm 1 mps 694 mmHg 90%
    23:00 +22°C° 0 mm 0 mps 694 mmHg 90%

    Day after tomorrow, 27 August, Tuesday

    Time Temperature Precipitation Wind Pressure Humidity
    00:00 +21°C° 0 mm 0 mps 694 mmHg 90%
    01:00 +21°C° 0 mm 0 mps 694 mmHg 90%
    02:00 +21°C° 0 mm 0 mps 694 mmHg 90%
    03:00 +21°C° 0 mm 0 mps 694 mmHg 90%
    04:00 +21°C° 0 mm 0 mps 693 mmHg 90%
    05:00 +21°C° 0 mm 0 mps 694 mmHg 90%
    06:00 +22°C° 0 mm 0 mps 694 mmHg 89%
    07:00 +22°C° 0 mm 0 mps 694 mmHg 88%
    08:00 +27°C° 0.1 mm 1 mps 695 mmHg 80%
    09:00 +29°C° 0.1 mm 1 mps 695 mmHg 71%
    10:00 +31°C° 0.1 mm 1 mps 696 mmHg 62%
    11:00 +32°C° 0.7 mm 1 mps 695 mmHg 61%
    12:00 +33°C° 0.7 mm 1 mps 694 mmHg 59%
    13:00 +34°C° 0.7 mm 1 mps 694 mmHg 57%
    14:00 +33°C° 0.8 mm 1 mps 693 mmHg 62%
    15:00 +32°C° 0.8 mm 1 mps 692 mmHg 67%
    16:00 +31°C° 0.8 mm 1 mps 692 mmHg 72%
    17:00 +29°C° 0.4 mm 1 mps 692 mmHg 78%
    18:00 +27°C° 0.4 mm 1 mps 692 mmHg 84%
    19:00 +25°C° 0.4 mm 1 mps 692 mmHg 90%
    20:00 +25°C° 0.1 mm 1 mps 693 mmHg 90%
    21:00 +24°C° 0.1 mm 1 mps 693 mmHg 90%
    22:00 +24°C° 0.1 mm 1 mps 694 mmHg 90%
    23:00 +24°C° 0 mm 1 mps 694 mmHg 90%

    28 August, Wednesday

    Time Temperature Precipitation Wind Pressure Humidity
    00:00 +21°C° 0 mm 0 mps 694 mmHg 89%
    01:00 +21°C° 0 mm 0 mps 694 mmHg 89%
    02:00 +21°C° 0 mm 0 mps 693 mmHg 89%
    03:00 +21°C° 0 mm 0 mps 693 mmHg 89%
    04:00 +21°C° 0 mm 0 mps 693 mmHg 88%
    05:00 +21°C° 0 mm 0 mps 694 mmHg 86%
    06:00 +22°C° 0 mm 0 mps 694 mmHg 85%
    07:00 +22°C° 0 mm 0 mps 695 mmHg 83%
    08:00 +27°C° 0 mm 1 mps 695 mmHg 71%
    09:00 +30°C° 0 mm 1 mps 696 mmHg 60%
    10:00 +32°C° 0 mm 1 mps 696 mmHg 48%
    11:00 +34°C° 0 mm 1 mps 695 mmHg 45%
    12:00 +35°C° 0 mm 1 mps 695 mmHg 41%
    13:00 +36°C° 0 mm 1 mps 694 mmHg 38%
    14:00 +35°C° 0.3 mm 1 mps 694 mmHg 44%
    15:00 +34°C° 0.3 mm 1 mps 693 mmHg 50%
    16:00 +33°C° 0.3 mm 1 mps 692 mmHg 56%
    17:00 +30°C° 0.5 mm 1 mps 693 mmHg 66%
    18:00 +28°C° 0.5 mm 1 mps 693 mmHg 77%
    19:00 +25°C° 0.5 mm 1 mps 693 mmHg 87%
    20:00 +25°C° 0.3 mm 1 mps 693 mmHg 88%
    21:00 +24°C° 0.3 mm 1 mps 694 mmHg 89%
    22:00 +24°C° 0.3 mm 1 mps 695 mmHg 90%
    23:00 +22°C° 0.1 mm 0 mps 694 mmHg 90%

    29 August, Thursday

    Time Temperature Precipitation Wind Pressure Humidity
    00:00 +22°C° 0.1 mm 0 mps 694 mmHg 90%
    01:00 +22°C° 0.1 mm 0 mps 694 mmHg 90%
    02:00 +21°C° 0 mm 0 mps 694 mmHg 90%
    03:00 +21°C° 0 mm 0 mps 693 mmHg 91%
    04:00 +21°C° 0 mm 0 mps 693 mmHg 91%
    05:00 +21°C° 0 mm 0 mps 694 mmHg 90%
    06:00 +22°C° 0 mm 0 mps 694 mmHg 89%
    07:00 +22°C° 0 mm 0 mps 695 mmHg 88%
    08:00 +25°C° 0 mm 0 mps 695 mmHg 77%
    09:00 +29°C° 0 mm 1 mps 696 mmHg 67%
    10:00 +32°C° 0 mm 1 mps 696 mmHg 57%
    11:00 +33°C° 0.2 mm 1 mps 696 mmHg 54%
    12:00 +34°C° 0.2 mm 1 mps 695 mmHg 52%
    13:00 +35°C° 0.2 mm 1 mps 694 mmHg 49%
    14:00 +33°C° 0.5 mm 1 mps 694 mmHg 55%
    15:00 +32°C° 0.5 mm 1 mps 693 mmHg 62%
    16:00 +31°C° 0.5 mm 2 mps 692 mmHg 68%
    17:00 +29°C° 0.4 mm 1 mps 693 mmHg 76%
    18:00 +27°C° 0.4 mm 1 mps 693 mmHg 83%
    19:00 +25°C° 0.4 mm 1 mps 693 mmHg 91%
    20:00 +25°C° 0.1 mm 1 mps 694 mmHg 91%
    21:00 +24°C° 0.1 mm 1 mps 694 mmHg 91%
    22:00 +24°C° 0.1 mm 1 mps 695 mmHg 91%
    23:00 +21°C° 0 mm 0 mps 694 mmHg 91%

    30 August, Friday

    Time Temperature Precipitation Wind Pressure Humidity
    00:00 +21°C° 0 mm 0 mps 694 mmHg 91%
    01:00 +21°C° 0 mm 0 mps 694 mmHg 91%
    02:00 +21°C° 0 mm 0 mps 694 mmHg 91%
    03:00 +20°C° 0 mm 0 mps 694 mmHg 91%
    04:00 +20°C° 0 mm 0 mps 693 mmHg 91%
    05:00 +21°C° 0 mm 0 mps 694 mmHg 90%
    06:00 +22°C° 0 mm 0 mps 694 mmHg 88%
    07:00 +22°C° 0 mm 0 mps 695 mmHg 86%
    08:00 +25°C° 0.1 mm 0 mps 696 mmHg 78%
    09:00 +29°C° 0.1 mm 1 mps 696 mmHg 71%
    10:00 +31°C° 0.1 mm 1 mps 697 mmHg 63%
    11:00 +31°C° 0.9 mm 1 mps 696 mmHg 64%
    12:00 +31°C° 0.9 mm 1 mps 695 mmHg 66%
    13:00 +31°C° 0.9 mm 1 mps 694 mmHg 68%
    14:00 +31°C° 0.9 mm 1 mps 694 mmHg 72%
    15:00 +30°C° 0.9 mm 1 mps 693 mmHg 75%
    16:00 +29°C° 0.9 mm 1 mps 692 mmHg 79%
    17:00 +28°C° 0.6 mm 1 mps 693 mmHg 84%
    18:00 +26°C° 0.6 mm 1 mps 693 mmHg 89%
    19:00 +25°C° 0.6 mm 1 mps 693 mmHg 94%
    20:00 +24°C° 0.3 mm 1 mps 694 mmHg 94%
    21:00 +24°C° 0.3 mm 1 mps 694 mmHg 94%
    22:00 +23°C° 0.3 mm 1 mps 695 mmHg 94%
    23:00 +21°C° 0.1 mm 0 mps 695 mmHg 94%
    Show more